Lid_Strength_Index
2 2 1 1 1 1 1 1 1 3 6 7 5 4 4 4 3 2 3 3 4 5 6 8 7 7 9 8
2 1 1 1 1 1 1 1 1 4 9 4 4 4 3 3 2 2 2 2 3 5 6 6 8 10 9 12
2 1 1 1 0 1 1 1 4 6 9 3 6 4 3 4 3 3 2 2 4 6 6 9 11 10 13 12
1 1 2 1 0 2 2 2 4 9 8 8 6 5 3 3 4 4 5 5 7 8 9 10 15 14 13 12
2 1 5 9 10 10 8 9 9 9 8 6 5 6 4 5 5 7 9 7 9 11 10 9 9 10 12 13
2 2 6 8 8 8 11 7 7 7 6 6 8 7 5 7 7 9 8 10 11 9 8 8 10 10 12 12
3 6 8 8 7 6 11 9 7 7 7 6 8 8 6 7 8 9 10 11 10 8 9 9 10 10 12 12
6 7 8 6 6 5 13 11 9 8 7 6 9 6 6 7 8 10 10 11 9 10 10 10 10 13 9 10
8 8 7 6 5 8 18 11 9 7 9 9 9 8 7 7 10 10 10 13 12 11 10 10 9 11 9 11
7 7 6 6 8 14 17 12 10 12 11 11 11 9 10 9 9 12 12 11 10 9 9 8 8 8 10 11
9 6 6 9 14 17 12 13 13 12 13 13 12 12 12 13 14 16 16 14 12 10 8 10 9 10 13 18
5 5 8 13 16 14 13 11 13 13 14 13 13 13 13 14 13 14 16 16 16 12 10 10 11 12 13 18
5 7 11 15 15 14 12 13 13 15 15 14 14 14 14 14 13 13 15 16 16 12 10 10 9 11 14 11
5 9 12 13 13 11 11 12 16 14 16 15 15 15 15 13 13 12 12 14 17 13 12 9 10 10 9 15
8 11 13 14 12 10 10 13 14 15 15 14 15 15 15 13 12 12 12 14 15 15 13 13 13 12 13 12
12 14 13 12 9 11 10 11 12 13 14 14 15 15 15 13 13 12 15 13 15 17 15 13 12 11 12 12
14 14 12 11 10 11 12 12 12 12 12 14 15 15 14 12 12 13 14 14 16 19 18 14 13 13 12 12